www.pogodaiklimat.ru

Погода и климат >> Архив погоды >> Россия >> Краснодарский край >> Новороссийск


АРХИВ ПОГОДЫ в Новороссийске

Время (UTC), дата Ветер
(напр.,м/с)
 
Видим.   Явления Облачность Т
(С)
Тd
(С)
f
(%)
Тe
(С)
Тes
(С)
Комфортность P
(гПа)
Po
(гПа)
Тmin
(С)
Tmax
(С)
R
(мм)
R24
(мм)
S
(см)
03 19.09 В 1 20 км 3/0
[Ci fib]
+20.1 +16.9 82 +24 +24 комфорт 1013.2 1011.9 +20.0
06 19.09 ЮЗ 1 20 км ясно +24.1 +18.1 69 +28 +33 душно 1014.0 1012.7
09 19.09 ЮЗ 1 20 км ясно +26.7 +19.7 65 +32 +45 очень
душно
1013.6 1012.4
12 19.09 Ю 2 20 км ясно +28.3 +18.4 55 +33 +40 очень
душно
1012.7 1011.4
15 19.09 Ю 1 20 км ясно +26.9 +17.2 55 +31 +31 душно 1011.7 1010.5 +28.9
18 19.09 СВ 6
{11}
10 км ясно +30.0 +13.6 37 +32 +32 жарко 1011.3 1010.0
21 19.09 СВ 7-12
{13}
10 км ясно +28.8 +13.6 39 +30 +30 жарко 1010.9 1009.7
00 20.09 В 7-12
{13}
10 км ясно +29.7 +10.8 31 +30 +30 жарко 1010.4 1009.2
03 20.09 штиль 0
{13}
20 км 3/3 600 м
[Sc]
+25.6 +21.4 78 +33 +33 очень
душно
1011.2 1009.9 +25.1
06 20.09 З 1 20 км 3/0
[Ac trans Cc]
+26.2 +21.4 75 +33 +38 очень
душно
1012.3 1011.0 +24.5
09 20.09 Ю 2 20 км 3/0
[Ac trans]
+28.9 +21.1 63 +36 +45 очень
душно
1012.3 1011.0
12 20.09 ЮЗ 2 20 км 10/6 1500 м
[Sc Ac trans Ci fib]
+27.3 +22.0 73 +35 +37 очень
душно
1011.5 1010.3
15 20.09 штиль 0 20 км 8/4 1500 м
[Cu Sc Ac trans Ci fib]
+27.3 +20.1 65 +34 +34 очень
душно
1011.1 1009.8 +30.3
18 20.09 СЗ 3 10 км 5/0
[Ci fib]
+27.5 +11.1 36 +28 +28 жарко 1010.6 1009.3
21 20.09 СВ 7-12
{14}
10 км ясно +31.1 +4.0 18 +29 +29 жарко 1009.3 1008.1
00 21.09 СВ 1
{12}
10 км ясно +25.8 +5.9 28 +25 +25 комфорт 1009.5 1008.2
03 21.09 штиль 0 10 км ясно +22.9 +11.9 50 +25 +25 комфорт 1010.0 1008.7 +22.9
06 21.09 штиль 0 20 км 1/1 1000 м
[Cu hum]
+25.7 +17.1 59 +30 +34 душно 1010.3 1009.1 +22.5
09 21.09 ЮЗ 2 20 км ясно +27.9 +21.4 68 +36 +46 очень
душно
1009.8 1008.6
12 21.09 Ю 2 20 км ясно +28.3 +21.5 67 +36 +43 очень
душно
1008.6 1007.4
15 21.09 СВ 2 20 км 1/1 1000 м
[Sc]
+29.7 +12.4 34 +31 +31 жарко 1007.3 1006.1 +29.7
18 21.09 С 1 10 км ясно +29.9 +6.3 23 +29 +29 жарко 1007.0 1005.8
21 21.09 С 2
{10}
10 км ясно +28.9 +7.3 26 +28 +28 жарко 1006.1 1004.9
00 22.09 СВ 2 10 км ясно +24.1 +13.9 53 +26 +26 жарко 1006.1 1004.8
03 22.09 В 1 10 км ясно +22.1 +14.6 62 +25 +25 комфорт 1005.6 1004.4 +22.1
06 22.09 Ю 3 20 км 3/3 600 м
[Sc]
+26.1 +19.9 69 +32 +34 очень
душно
1006.8 1005.5 +21.8
09 22.09 Ю 3 20 км 5/5 600 м
[Cu Sc]
+26.2 +19.9 68 +32 +36 очень
душно
1008.2 1007.0
12 22.09 ЮЗ 2 н/о н/о +26.5 +19.8 67 +32 +32 очень
душно
1009.8 1008.6
15 22.09 В 1 20 км ясно +26.4 +17.1 57 +30 +30 душно 1011.0 1009.8 +29.4
18 22.09 С 1 10 км 3/3 600 м
[Sc]
+24.0 +17.4 67 +28 +28 душно 1012.7 1011.5
21 22.09 ЮЗ 1 10 км 8/8 600 м
[Sc]
+23.7 +13.8 54 +26 +26 жарко 1014.4 1013.2
00 23.09 В 4
{11}
10 км 5/5 600 м
[Sc]
+22.4 +14.1 59 +26 +26 жарко 1014.3 1013.0
03 23.09 СВ 6-12
{14}
10 км 8/8 600 м
[Sc]
+21.7 +13.9 61 +25 +25 комфорт 1013.7 1012.4 +21.7
06 23.09 З 5
{13}
20 км 9/9 1000 м
[Sc]
+22.6 +14.9 62 +26 +27 жарко 1013.5 1012.2 +21.5
09 23.09 СВ 7-10
{11}
20 км 10/8 1000 м
[Cb calv As op]
+22.9 +15.7 64 +27 +27 душно 1012.8 1011.6
12 23.09 СВ 6 20 км гроза, ливневой дождь 10/10 600 м
[Cb cap]
+18.6 +13.5 72 +19 +19 прохладно 1015.3 1014.0
15 23.09 З 3 20 км {гроза, ливн. осадки} 9/9 1000 м
[Cb calv]
+20.9 +14.5 67 +24 +24 комфорт 1016.3 1015.0 +24.1 2
18 23.09 СВ 3
{11}
10 км {гроза, ливн. осадки} 8/5 600 м
[Sc diur, vesp Ac trans]
+20.4 +14.5 69 +23 +23 комфорт 1017.0 1015.8
21 23.09 штиль 0 10 км 9/4 300 м
[St Ac trans]
+18.3 +15.4 83 +19 +19 тепло 1018.1 1016.8
00 24.09 штиль 0 10 км 8/3 300 м
[Sc Ci fib]
+17.9 +15.3 85 +18 +18 тепло 1018.9 1017.6
03 24.09 СВ 1 10 км ясно +16.8 +14.3 85 +18 +18 тепло 1019.9 1018.6 +16.7
06 24.09 С 3 20 км ясно +22.0 +12.5 55 +25 +28 комфорт 1020.9 1019.6 +16.5
09 24.09 СВ 2 20 км 1/0
[Cc]
+25.4 +10.0 38 +26 +36 жарко 1021.0 1019.7
12 24.09 СВ 3 20 км 9/1 1000 м
[Cu Sc Ac trans Cc]
+26.6 +9.0 33 +27 +29 жарко 1021.0 1019.8
15 24.09 СВ 5
{10}
20 км 9/3 1000 м
[Sc Ac trans Cc]
+24.6 +10.5 41 +26 +26 жарко 1020.7 1019.4 +27.3
18 24.09 СВ 7-10
{11}
10 км 6/0
[Cc]
+23.0 +10.3 45 +25 +25 комфорт 1020.4 1019.1
21 24.09 СВ 7-10
{11}
10 км 3/0
[Cc]
+22.3 +12.5 54 +25 +25 комфорт 1019.8 1018.6
00 25.09 СВ 6-12
{13}
10 км 3/0
[Cc]
+20.5 +11.4 56 +22 +22 комфорт 1019.9 1018.6
03 25.09 В 3
{13}
10 км 3/0
[Ac trans]
+18.7 +9.8 56 +19 +19 тепло 1019.4 1018.1 +18.7
06 25.09 СВ 7-12
{14}
20 км 3/0
[Ac trans]
+21.1 +10.1 49 +23 +23 комфорт 1019.9 1018.6 +18.4
09 25.09 СВ 7-13
{13}
20 км ясно +24.1 +11.2 44 +25 +28 комфорт 1020.0 1018.7
12 25.09 СВ 6-11
{14}
20 км ясно +26.5 +10.1 36 +27 +30 жарко 1019.3 1018.1
15 25.09 СВ 8-13
{14}
20 км 3/0
[Ci fib]
+25.4 +5.0 27 +25 +25 комфорт 1018.6 1017.3 +27.2
18 25.09 СВ 14-19
{20}
10 км ясно +21.9 -0.8 22 +21 +21 комфорт 1018.6 1017.3
21 25.09 СВ 13-22
{23}
10 км ясно +18.8 +0.1 28 +18 +18 тепло 1017.9 1016.6
00 26.09 В 15-21
{26}
10 км ясно +16.3 +0.3 34 +14 +14 по сезону 1017.2 1015.8

 

Местоположение метеостанции Новороссийск (Краснодарский край, Россия): широта 44.72 долгота 37.85 высота над уровнем моря 3 м.

В архиве по умолчанию представлена погода в Новороссийске за последнюю неделю. Архивные данные за месяц целиком и за предыдущие месяцы, начиная с января 2011 года, Вы можете получить, выбрав интересующий диапазон дат из раскрывающегося списка и нажав кнопку "Ввод!".

Внимание! Время в таблицах - всемирное. Для получения местного времени необходимо прибавить поправку, которая в Новороссийске равна 3 ч.

Смотрите также архив погоды в соседних городах и на ближайших метеорологических станциях:

Погода в Геленджике (Краснодарский край, Россия) (25 км)
Погода в Крымске (Краснодарский край, Россия) (25 км)
Погода в Анапе (Краснодарский край, Россия) (48 км)
Погода в Славянске-на-Кубани (Краснодарский край, Россия) (66 км)
Погода в Темрюке (Краснодарский край, Россия) (76 км)
Погода в Джубге (Краснодарский край, Россия) (81 км)
Погода в Горячем Ключе (Краснодарский край, Россия) (99 км)
Погода в Краснодаре (Краснодарский край, Россия) (100 км)
Погода в Тамани (Краснодарский край, Россия) (105 км)
Погода в Туапсе (Краснодарский край, Россия) (119 км)

Пояснения к столбцам:

Ветер - указаны скорость ветра в м/с - средняя за 10 мин, порывы в срок и между сроками (в фигурных скобках) и направление, откуда дует ветер: С - северный, СВ - северо-восточный, В - восточный, ЮВ - юго-восточный, Ю - южный, ЮЗ - юго-западный, З - западный, СЗ - северо-западный.
Видимость - горизонтальная дальность видимости в метрах или километрах. При видимости от 1 до 10 км при отсутствии осадков обычно наблюдается дымка, при ухудшении видимости до 1 км и менее - туман. В сухую погоду видимость может ухудшаться дымом, пылью или мглою.
Явления - указаны атмосферные явления, наблюдавшиеся в срок или в последний час перед сроком; фигурными скобками обозначены явления, наблюдавшиеся между сроками (за 1-3 часа до срока); квадратными скобками обозначены град или гололедные отложения с указанием их диаметра в мм.
Облачность - указаны через наклонную черту общая и нижняя облачность в баллах и высота нижней границы облаков в метрах; квадратными скобками обозначены формы облаков: Ci - перистые, Cs - перисто-слоистые, Cc - перисто-кучевые, Ac - высококучевые, As - высокослоистые, Sc - слоисто-кучевые, Ns - слоисто-дождевые, Cu - кучевые, Cb - кучево-дождевые. Подробнее классификацию облаков см. в Атласе облаков (PDF).
T - Температура воздуха - температура, измеренная на высоте 2 м над землей.
Td - Температура точки росы - температура, при понижении до которой содержащийся в воздухе водяной пар достигнет насыщения.
f - Относительная влажность воздуха - влажноcть воздуха, измеренная на высоте 2 м над землей.
Te - Эффективная температура - температура, которую ощущает одетый по сезону человек в тени. Характеристика душности погоды. При расчете учитывается влияние влажности воздуха и скорости ветра на теплоощущения человека.
Tes - Эффективная температура на солнце - температура, которую ощущает человек, с поправкой на солнечный нагрев. Характеристика знойности погоды. Зависит от высоты солнца над горизонтом, облачности и скорости ветра. Ночью, в пасмурную погоду, а также при ветре 12 м/с и более поправка равна нулю.
P - Атмосферное давление - приведенное к уровню моря атмосферное давление.
Po - Атмосферное давление - измеренное на уровне метеостанции атмосферное давление.
Tmin - Минимальная температура - минимум температуры воздуха на высоте 2 м над землей.
Tmax - Максимальная температура - максимум температуры воздуха на высоте 2 м над землей.
R - Количество осадков - Количество выпавших осадков за период времени, мм. При наведении курсора мыши на число - период времени, за который выпало указанное количество осадков.
R24 - Количество осадков - Количество выпавших осадков за 24 часа, мм.
S - Снежный покров - Высота снежного покрова, см. При наведении курсора мыши на число - состояние снежного покрова и степень покрытия местности в баллах.